This demonstration page uses our WeatherBlox Daily Observations layout. Learn more.

Left ArrowRight Arrow

38.83388, -104.82136

Hourly Observations for November 13, 2019

Temp ( °F °C ) Dew Point ( °F °C ) Humidity (%) Winds ( mph kmh ) Pressure ( in mb ) Visibility ( mi km ) Precip ( " mm )
12:58 am 00:58 Mostly Cloudy 53 11.7 -3 -19.5 10 10 SSW 5 7 29.65 1004 10 16 0.00 0.00
1:58 am 01:58 Cloudy 50 10.2 5 -14.8 16 16 NW 6 9 29.68 1005 10 16 0.00 0.00
2:58 am 02:58 Mostly Cloudy 49 9.3 11 -11.7 22 22 WNW 5 7 29.68 1005 10 16 0.00 0.00
3:58 am 03:58 Clear 47 8.6 12 -11 24 24 Calm 29.53 1000 10 16 0.00 0.00
4:58 am 04:58 Clear 49 9.6 8 -13.5 18 18 NW 7 11 29.53 1000 10 16 0.00 0.00
5:58 am 05:58 Clear 52 10.9 3 -16.2 13 13 NW 15 24 29.54 1000 10 16 0.00 0.00
6:58 am 06:58 Sunny 54 12.1 4 -15.5 13 13 NNW 12 19 29.54 1000 10 16 0.00 0.00
7:58 am 07:58 Sunny 49 9.2 6 -14.6 17 17 NNW 7 11 29.62 1003 10 16 0.00 0.00
8:58 am 08:58 Sunny 50 10.2 7 -14.1 17 17 W 5 7 29.62 1003 10 16 0.00 0.00
10:58 am 10:58 Sunny 52 11.1 12 -11 20 20 N 8 13 29.64 1004 10 16 0.00 0.00
11:58 am 11:58 Sunny 53 11.7 13 -10.8 20 20 Calm 29.60 1002 10 16 0.00 0.00
12:58 pm 12:58 Sunny 56 13.4 12 -11.1 17 17 ESE 5 7 29.54 1001 10 16 0.00 0.00
1:58 pm 13:58 Sunny 54 12 19 -7.5 25 25 ESE 6 9 29.57 1001 10 16 0.00 0.00
2:58 pm 14:58 Sunny 50 9.8 19 -7.2 30 30 Calm 29.61 1003 10 16 0.00 0.00
3:58 pm 15:58 Sunny 46 7.9 19 -7.2 34 34 SSE 7 11 29.67 1005 10 16 0.00 0.00
4:58 pm 16:58 Clear 43 6.3 20 -6.6 39 39 S 5 7 29.70 1006 10 16 0.00 0.00
5:58 pm 17:58 Clear 40 4.6 22 -5.3 49 49 S 6 9 29.75 1007 10 16 0.00 0.00
6:58 pm 18:58 Clear 40 4.2 23 -4.9 52 52 SW 5 7 29.76 1008 10 16 0.00 0.00
7:58 pm 19:58 Clear 38 3.5 24 -4.6 56 56 S 10 17 29.80 1009 10 16 0.00 0.00
8:58 pm 20:58 Clear 37 2.7 24 -4.5 59 59 SSE 14 22 29.81 1009 10 16 0.00 0.00
9:58 pm 21:58 Clear 37 2.9 24 -4.2 60 60 S 16 26 30.11 1020 10 16 0.00 0.00
10:58 pm 22:58 Clear 36 2.2 24 -4.4 62 62 S 17 28 29.80 1009 10 16 0.00 0.00
11:58 pm 23:58 Clear 35 1.8 25 -4.1 65 65 S 16 26 29.82 1010 10 16 0.00 0.00

Powered by AerisWeather